RH
13 13 11 11 13 21 26 27 24 22 38 55 62 71 81 86 79 68 70 67 58 68 78 68 65 68 66 74 81 84 73 49 48 57 51 48 47 42 52 68 71 63 55 56 68 73 68 67 63 62 67 68 58 40 31 27 20 17 14 12 12 11 11 12 13 13 14 14 13 13 11 11 11 10 10 10 9 10 10 10 9 9 9 9 9 9
17 16 15 14 16 26 33 39 32 21 30 42 37 34 54 82 81 68 70 68 60 60 56 54 72 78 68 76 80 79 88 75 49 36 29 30 37 40 48 63 67 62 59 62 71 70 61 61 61 62 68 67 55 37 25 21 17 16 14 13 13 12 13 13 14 16 17 18 17 16 14 12 11 10 10 10 10 10 10 10 10 10 9 9 9 9
18 13 21 24 14 18 27 32 31 23 18 19 22 13 21 61 79 70 65 66 69 59 40 35 50 69 75 74 69 63 66 59 37 26 23 17 19 30 37 46 54 55 58 69 75 64 52 58 61 59 67 66 48 30 21 19 18 18 17 16 14 13 15 15 17 20 21 23 22 21 19 17 14 12 11 11 12 12 11 12 11 11 11 11 11 11
22 26 30 27 17 18 20 20 20 19 17 14 19 13 16 51 74 74 72 66 67 57 43 38 32 39 57 63 60 53 44 41 34 23 20 17 14 21 28 33 40 47 56 65 65 58 56 62 58 54 65 62 40 25 23 22 22 22 20 18 16 16 16 18 22 26 27 26 24 23 22 21 20 18 15 14 14 14 14 13 13 13 13 13 13 12
25 42 33 21 25 32 25 20 18 15 16 14 17 14 16 47 74 82 77 59 55 59 58 54 38 25 29 33 38 42 35 30 33 27 18 18 17 18 26 27 27 38 54 62 66 68 64 54 46 52 65 58 36 27 28 29 27 24 23 21 19 21 22 23 26 30 32 29 25 23 22 22 22 21 20 18 16 16 16 15 14 15 14 14 14 14
40 41 25 18 24 32 29 23 19 17 16 14 19 18 14 30 55 69 68 50 44 60 68 56 42 40 38 36 40 49 53 43 36 35 23 18 19 15 26 32 25 31 44 50 57 64 59 47 38 45 64 60 36 30 35 34 29 25 27 26 23 28 30 29 30 32 34 32 27 25 23 23 21 20 21 19 18 17 16 16 16 16 15 14 14 13
68 37 17 20 20 20 26 23 18 18 17 18 25 27 23 21 26 33 42 42 37 50 67 57 47 58 62 63 68 73 85 80 60 55 43 31 26 18 26 34 22 26 41 42 43 48 50 46 35 36 65 72 42 32 41 38 33 33 36 35 29 34 39 35 34 34 34 33 31 29 25 22 20 20 20 19 19 18 17 17 17 16 16 15 14 13
60 41 25 24 24 20 21 21 20 18 15 18 28 34 35 32 30 27 25 26 28 36 52 50 40 47 50 56 72 78 87 90 71 64 59 46 39 34 38 41 30 32 37 32 37 49 48 42 37 39 67 86 58 38 46 47 43 45 46 42 34 37 44 39 35 36 37 36 33 32 26 21 20 19 20 20 19 19 18 17 16 16 15 13 12 11
45 44 34 25 32 30 21 19 25 28 24 21 25 34 39 36 37 40 38 33 34 37 42 42 37 40 40 46 69 78 78 82 72 69 72 65 61 60 58 55 48 48 44 36 44 54 47 38 41 42 57 87 78 53 53 54 50 50 51 50 44 44 48 43 38 39 40 41 38 34 27 21 20 18 19 20 19 18 17 16 15 14 13 12 11 9
40 38 32 28 36 39 32 35 44 41 36 32 30 37 42 38 37 41 45 43 41 43 41 40 43 50 51 55 74 80 72 71 71 76 78 70 67 67 62 55 50 51 48 40 38 39 37 33 38 47 63 86 80 61 63 58 50 53 56 58 56 55 57 50 43 42 44 45 41 34 26 21 20 19 19 19 18 17 16 15 14 13 11 10 9 8
49 43 36 34 37 41 44 53 56 41 34 34 29 37 43 39 42 43 41 41 41 42 40 41 47 51 57 70 85 87 81 74 71 77 77 71 75 71 60 54 49 45 39 34 35 35 36 33 34 50 72 75 54 48 64 59 49 54 59 64 63 61 67 60 47 45 47 48 42 31 24 22 21 19 19 18 17 16 15 14 13 12 10 8 7 7
62 62 53 48 43 39 43 49 49 40 42 41 31 36 41 38 41 42 39 37 35 38 41 47 59 63 68 81 88 83 81 78 71 77 84 85 86 76 64 60 54 46 38 41 47 38 36 40 36 36 45 46 36 41 60 60 52 53 57 65 64 62 70 67 54 49 49 48 39 28 22 22 21 20 19 18 16 15 14 13 12 10 9 8 7 6
71 78 76 76 67 49 43 46 48 47 43 39 38 39 37 38 43 48 54 53 49 53 56 57 70 83 85 85 85 77 72 74 74 76 80 80 78 74 71 62 49 43 40 42 42 34 42 51 41 29 25 26 29 38 52 60 61 60 59 64 63 58 65 69 57 48 49 46 34 25 23 23 23 22 21 19 17 16 14 13 12 11 10 9 7 7
86 88 85 91 91 74 58 52 64 80 65 47 54 55 44 45 55 64 72 76 79 81 80 78 81 87 87 85 91 87 68 65 71 67 61 59 61 65 61 44 34 38 41 41 40 39 47 45 35 35 34 29 31 37 43 51 59 64 66 69 66 57 59 67 59 48 46 39 27 24 24 24 26 26 27 27 22 19 17 15 13 11 10 9 9 8
88 93 87 87 94 92 77 56 55 76 79 72 79 81 68 59 66 78 83 91 98 96 92 89 87 89 87 83 92 90 70 64 69 65 58 53 52 52 47 37 34 35 34 33 32 31 35 37 37 41 41 39 42 42 40 43 49 58 66 70 66 55 52 61 59 47 39 30 23 25 27 28 29 29 32 36 31 24 21 20 18 15 15 14 13 13
69 76 80 85 95 97 84 65 54 53 63 77 80 83 91 89 83 85 89 94 94 92 92 84 82 92 90 83 87 85 74 70 68 64 63 59 52 48 47 44 39 35 36 38 36 31 31 36 40 39 39 43 46 44 41 43 45 49 56 59 54 49 48 54 54 40 28 24 23 26 30 33 34 36 38 42 42 35 27 25 24 22 23 24 24 23
68 68 75 83 88 83 69 66 69 57 51 60 58 63 85 94 91 91 94 95 86 80 81 76 79 85 80 78 79 74 71 67 59 57 55 47 42 39 37 36 33 34 42 46 42 37 33 31 33 35 37 38 38 36 33 35 37 37 42 44 39 40 46 51 47 31 21 22 25 27 32 37 41 45 47 49 52 48 37 30 27 25 27 31 35 34
58 55 64 73 77 77 70 58 50 38 27 27 41 65 76 71 75 87 90 87 81 75 70 69 76 75 73 80 72 65 73 70 63 59 48 41 41 39 36 33 29 31 38 41 38 37 35 32 31 30 30 27 25 26 23 23 27 29 32 33 25 26 44 56 47 31 23 23 25 28 33 41 49 55 58 58 58 54 47 39 32 28 29 35 40 40
38 34 41 52 60 73 84 70 47 36 25 11 20 49 63 59 64 76 84 80 71 63 55 59 70 67 71 83 74 68 77 78 79 75 59 50 46 42 45 42 34 32 35 37 38 37 38 37 36 33 31 28 25 23 22 21 22 24 24 25 18 17 47 75 64 40 30 28 30 32 35 43 54 61 64 63 59 56 53 47 40 35 35 41 46 45
27 25 25 30 43 69 89 76 51 43 40 33 28 29 34 40 40 48 65 75 70 61 55 60 74 74 72 81 81 76 77 81 92 92 74 57 49 53 61 54 43 40 39 39 39 37 38 39 42 42 39 37 33 28 27 22 21 23 22 23 19 15 43 84 87 60 41 36 37 39 42 51 58 62 68 69 67 66 64 58 52 47 44 46 49 48
18 19 20 23 36 55 65 55 48 51 55 68 71 59 52 48 41 37 39 46 55 61 63 65 73 77 73 79 85 81 80 87 94 95 84 67 63 71 70 58 50 46 43 43 42 40 41 42 44 46 46 47 46 41 37 30 24 24 24 27 27 19 27 56 79 77 60 51 52 52 56 59 59 65 75 79 76 74 72 69 63 59 55 53 53 51
16 13 12 18 22 26 28 34 54 63 60 70 72 67 77 83 78 71 59 57 64 67 71 74 73 74 71 76 82 77 79 85 86 91 87 75 76 79 67 58 56 53 49 49 48 47 46 47 49 50 50 52 55 54 51 44 35 29 34 45 51 47 38 37 54 67 61 57 62 68 73 74 69 76 85 88 89 85 78 74 71 66 63 62 61 57
18 16 12 14 13 12 13 24 50 58 48 57 59 56 73 82 80 78 71 73 78 76 81 86 80 75 72 77 84 80 77 75 75 86 87 78 83 81 66 60 60 58 58 56 54 53 50 50 55 58 58 57 58 61 59 55 49 41 43 58 72 78 73 63 64 71 72 75 78 76 78 79 78 86 93 89 89 92 91 87 84 79 73 69 67 65
22 20 17 15 11 12 12 11 24 28 20 27 32 28 35 38 40 45 44 46 52 54 59 60 53 53 59 72 82 78 74 70 68 78 81 79 84 81 68 65 64 61 59 54 53 56 54 51 54 61 67 67 65 66 66 63 61 55 50 55 68 80 82 79 81 85 86 89 89 82 82 84 85 94 99 90 82 89 97 97 95 93 89 83 78 74
24 19 17 15 12 12 14 10 16 28 36 42 32 14 10 11 11 16 18 22 27 26 27 26 24 34 52 69 74 69 68 72 74 77 73 70 77 79 74 74 75 70 63 57 52 51 52 50 48 52 60 67 70 73 76 74 70 67 63 60 62 66 70 73 79 86 90 94 95 94 93 93 93 95 98 93 88 92 99 99 96 93 94 95 95 92
26 20 17 15 13 11 11 18 41 65 77 74 53 29 20 18 17 17 18 20 20 19 21 22 22 33 49 57 56 53 54 64 76 80 73 66 68 73 71 69 71 69 62 59 55 52 51 48 43 42 45 54 63 69 76 81 79 75 72 68 63 59 58 59 60 67 80 90 94 91 83 80 85 88 86 84 85 90 97 98 92 88 89 94 98 96
20 18 15 12 13 14 11 15 35 54 60 61 55 45 40 39 38 38 35 32 33 32 28 28 32 42 57 63 57 51 54 63 71 71 67 64 62 62 62 60 62 63 60 58 57 56 54 51 48 43 38 42 52 59 66 74 80 79 74 67 61 56 55 53 49 47 52 60 65 61 53 51 57 63 65 68 72 76 79 80 84 93 96 94 96 93
22 20 18 15 11 11 13 11 13 19 24 32 38 41 48 52 51 49 43 45 57 55 41 36 39 42 54 61 54 49 54 57 62 69 73 73 69 62 55 57 66 75 76 69 62 58 55 56 58 53 42 36 40 49 57 63 69 75 75 70 64 59 55 52 48 44 41 42 44 43 40 38 38 37 39 44 47 49 49 48 58 77 85 87 96 98
24 24 24 24 19 14 14 12 11 11 11 12 15 20 27 31 33 33 30 33 47 54 49 46 45 42 42 41 35 40 51 49 53 72 85 87 90 83 72 74 84 91 90 81 70 61 56 55 59 57 49 40 36 39 47 53 58 64 68 70 69 64 59 54 49 46 42 38 37 38 38 37 37 35 34 34 33 33 34 32 32 41 47 54 68 74
27 30 30 24 21 21 18 13 12 12 12 11 12 14 14 16 20 22 20 19 25 33 35 33 34 37 38 36 29 32 42 44 46 60 74 81 85 82 82 91 97 95 91 85 75 67 61 56 58 60 54 46 41 38 37 38 42 47 53 58 61 62 60 56 52 47 45 42 38 35 35 34 34 33 32 33 33 32 32 33 30 29 30 31 36 41
54 58 58 44 38 38 35 29 22 17 15 13 14 20 25 30 36 37 32 28 29 29 25 24 24 20 18 24 30 34 45 53 51 49 57 67 68 68 79 90 92 91 90 81 74 72 68 60 59 62 59 52 47 43 37 31 27 28 33 37 41 45 47 47 45 42 41 41 38 34 33 33 32 31 30 29 30 30 29 30 30 29 30 30 30 31
68 74 76 66 57 53 53 53 46 37 31 24 22 25 29 33 42 47 44 41 45 42 31 24 21 16 17 25 31 39 54 66 65 60 63 67 64 68 84 92 89 89 87 78 73 73 69 60 55 53 57 62 59 48 43 40 33 27 27 28 28 29 31 32 33 33 32 31 30 29 29 30 29 28 27 26 26 27 26 25 26 26 28 30 31 31
65 69 68 63 58 55 60 66 62 52 42 35 36 37 36 35 37 41 40 40 45 43 31 23 20 22 34 42 39 41 51 58 62 66 71 72 66 67 78 86 86 87 88 88 87 82 74 64 50 38 44 62 65 54 49 48 40 33 31 31 31 29 30 31 31 31 31 29 28 27 26 27 27 26 26 25 24 24 24 23 24 24 24 25 27 28
52 50 46 46 47 48 59 68 68 56 41 37 45 49 46 44 39 36 37 39 41 41 36 33 33 35 40 44 42 42 47 54 59 61 64 67 65 66 70 72 75 81 88 93 93 88 80 66 50 41 45 57 62 59 55 45 35 32 33 33 34 35 34 34 34 34 35 34 34 34 32 30 29 29 29 28 27 28 30 31 32 32 32 30 29 27
45 47 50 55 57 60 71 79 73 57 44 45 55 56 51 48 45 40 39 39 38 38 34 32 38 46 49 52 52 44 39 46 48 47 55 61 60 63 67 67 71 77 83 87 87 84 75 61 51 49 51 56 62 61 52 39 33 37 40 37 36 36 34 32 34 35 35 36 37 37 37 36 36 35 35 34 34 36 44 55 63 64 62 57 52 47
58 66 74 76 72 69 71 71 62 51 46 51 54 49 38 33 33 32 30 31 33 34 32 27 28 31 31 37 42 35 28 29 27 33 56 68 61 55 57 61 68 70 67 69 74 74 67 54 47 47 46 49 55 53 45 40 39 41 42 39 34 32 29 28 32 35 36 38 39 39 38 38 37 37 37 38 38 40 54 76 91 94 93 91 86 79
51 58 70 72 66 61 57 53 48 42 39 39 36 31 25 24 26 23 21 26 32 33 31 25 22 21 20 22 24 19 16 17 16 22 40 47 41 36 37 41 53 61 62 64 65 61 54 45 38 36 33 34 43 48 46 43 38 34 33 31 25 22 20 19 22 26 28 31 34 37 40 41 41 41 39 39 38 38 45 61 72 78 85 91 94 94
46 50 64 69 63 57 55 53 46 37 33 33 31 29 28 28 27 25 27 33 37 39 38 33 31 30 27 26 24 18 18 21 20 20 27 29 26 27 31 36 44 54 59 57 49 39 33 28 23 22 22 26 39 50 47 37 29 26 23 19 15 14 13 13 14 15 16 18 19 22 27 32 37 41 42 43 43 41 39 41 43 46 51 58 64 71
72 77 80 73 58 48 45 41 35 35 42 45 41 35 33 33 31 31 39 45 45 45 42 37 36 36 32 32 32 29 31 33 28 25 31 34 27 23 28 36 45 54 56 50 44 39 31 23 19 21 25 31 41 46 39 29 25 23 20 18 18 19 20 19 19 18 17 17 16 16 17 18 21 26 32 38 42 44 44 44 42 40 40 41 42 44
70 77 72 63 52 46 44 40 41 57 68 60 48 47 51 53 52 49 52 53 51 48 42 39 43 44 39 37 38 36 38 39 31 25 29 33 31 30 32 35 41 53 59 59 58 51 38 28 24 26 30 35 37 35 30 26 25 24 23 22 23 26 28 27 27 26 25 25 25 24 22 21 19 18 19 22 27 32 36 39 42 43 44 43 41 40
69 70 65 62 58 54 59 66 73 86 91 75 63 64 62 59 64 69 70 68 63 56 52 52 58 59 51 46 44 40 38 38 32 27 32 37 36 35 34 31 33 41 49 55 57 50 40 36 34 31 33 34 32 31 30 31 31 30 28 26 27 31 34 34 34 34 34 34 35 33 32 30 27 24 22 21 21 21 22 25 29 33 37 40 39 41
83 82 71 68 72 73 79 89 91 96 98 89 82 81 73 69 77 82 77 74 71 67 63 61 63 65 57 49 48 47 44 42 37 31 35 44 46 45 44 41 36 35 37 43 50 50 47 44 40 35 33 32 32 36 39 39 37 35 33 32 32 34 38 41 42 42 42 41 40 39 37 36 34 31 29 28 26 25 24 24 22 24 31 33 31 37
84 83 72 76 91 93 90 93 96 98 99 93 88 92 92 88 88 86 78 74 69 66 69 70 69 64 53 42 44 50 51 48 44 37 37 46 53 56 58 55 49 45 42 41 44 49 51 50 48 44 39 39 43 48 48 43 38 35 35 35 34 35 38 44 46 47 46 45 42 41 40 39 39 37 35 33 31 30 30 30 27 27 31 30 27 35
84 80 74 85 97 92 86 94 100 98 97 96 95 99 96 84 76 76 80 81 73 65 67 69 65 60 52 43 41 42 40 39 40 39 40 47 54 59 62 63 60 54 49 44 41 45 50 53 54 52 47 48 53 53 50 45 40 36 35 34 35 37 40 44 47 49 49 47 45 44 43 42 42 42 40 38 36 36 37 37 34 31 31 32 32 37
85 78 70 72 79 80 79 89 98 99 100 102 99 93 84 72 66 69 76 83 85 79 71 63 56 53 50 45 42 40 39 42 44 45 46 48 54 59 64 69 70 65 62 58 53 51 55 56 54 50 46 45 45 44 44 42 37 34 35 36 38 38 38 40 42 45 46 46 45 44 43 43 44 43 41 40 41 44 43 39 34 32 32 35 37 38
71 70 64 61 66 72 69 70 82 95 101 99 92 84 78 73 72 71 70 71 74 73 66 57 54 54 51 47 46 46 44 45 46 47 48 47 48 51 54 60 67 69 68 64 57 55 57 55 49 44 42 42 42 41 41 38 33 31 35 39 39 36 35 36 37 38 38 38 38 37 36 37 38 38 39 41 42 42 40 36 32 31 34 38 39 39
58 56 56 56 59 62 59 61 73 81 77 72 69 66 65 66 68 66 60 54 51 51 51 49 48 48 46 42 42 41 41 41 40 40 42 42 41 42 42 45 50 53 52 50 48 49 50 47 43 40 38 39 41 40 38 36 34 33 34 36 34 32 31 31 30 30 30 29 27 27 26 25 25 26 28 30 29 29 30 29 26 27 32 35 34 35
57 52 56 61 58 53 53 60 66 62 55 55 58 61 60 59 57 53 50 48 44 40 40 39 38 39 39 38 37 36 35 36 35 35 34 34 33 34 35 35 35 36 36 36 36 37 38 37 37 34 31 32 36 36 33 32 31 30 29 29 29 28 27 26 25 24 23 22 20 19 17 16 16 16 16 16 15 15 16 16 15 16 19 19 19 21
43 42 47 49 45 41 45 51 50 44 43 48 52 53 49 44 42 41 41 42 40 36 34 33 32 32 31 30 30 30 29 28 29 28 27 27 28 28 28 28 29 29 29 29 29 30 30 30 30 29 28 29 31 29 27 26 27 26 25 25 25 24 22 22 22 21 20 18 18 16 14 14 12 11 11 10 9 9 9 8 8 7 6 7 8 9
30 31 33 30 28 30 35 39 39 36 37 41 45 45 43 41 41 42 44 43 39 34 30 27 25 24 22 22 21 21 21 21 21 20 20 19 20 19 19 20 21 21 22 23 23 23 24 24 25 24 24 24 24 24 24 24 23 23 23 22 21 21 20 19 18 17 16 16 15 14 13 12 10 9 9 8 6 7 6 5 6 6 6 6 6 5
25 24 27 28 28 29 32 37 40 36 32 34 40 40 39 38 38 39 43 44 38 32 26 22 20 19 18 17 17 17 17 16 16 16 17 16 16 16 16 15 15 16 16 16 16 17 18 17 18 20 20 19 20 22 21 20 19 19 19 18 16 15 14 14 14 14 15 14 13 13 11 10 9 8 7 7 7 7 6 6 7 6 5 5 5 5
Wind_Speed
15 15 16 15 17 15 13 14 13 11 10 14 16 11 8 9 9 11 15 20 18 13 13 11 10 15 17 14 13 15 22 23 16 17 22 24 25 23 21 22 22 23 25 25 23 21 19 20 21 23 24 25 25 26 27 26 25 23 22 22 22 21 20 19 19 20 21 22 23 24 24 25 25 25 25 25 25 25 25 25 25 26 26 26 26 27
14 15 15 16 19 15 12 14 14 12 13 15 17 13 9 9 8 11 17 19 20 19 16 13 12 11 16 18 18 16 17 19 16 16 19 22 25 25 24 24 25 25 25 25 25 25 24 22 22 24 26 26 25 24 25 24 23 22 22 22 21 21 20 19 19 19 20 21 22 23 23 24 25 25 25 25 25 25 25 25 25 26 26 27 27 28
14 14 13 17 20 17 16 16 16 16 18 18 18 16 12 9 9 14 20 21 22 18 13 12 15 13 16 21 25 22 20 20 20 18 19 21 23 25 27 28 27 26 25 26 26 26 27 25 24 24 26 27 24 22 23 22 22 21 22 22 21 20 20 19 19 19 19 20 20 21 22 23 23 24 24 24 25 25 25 25 25 26 26 27 27 28
13 15 17 18 18 16 18 19 18 18 19 19 19 18 15 11 11 14 20 25 26 24 18 16 15 16 17 17 23 28 26 22 20 20 21 21 22 24 28 31 30 27 26 27 26 26 27 26 25 25 27 28 23 20 20 20 21 22 22 22 21 20 21 20 19 19 20 20 20 20 21 21 22 23 23 24 24 24 25 25 25 25 26 26 27 27
13 18 21 19 15 13 14 16 17 18 20 20 20 20 18 15 12 13 20 26 26 23 18 17 18 18 19 17 17 21 24 23 22 22 22 22 22 22 26 30 31 30 27 25 25 26 27 27 27 27 29 30 23 18 18 19 21 22 23 23 22 21 22 21 20 20 20 20 20 20 20 21 22 22 22 23 24 24 24 25 25 25 25 25 26 26
13 22 23 19 16 15 14 15 16 17 19 20 21 21 22 22 20 19 22 26 24 18 15 17 19 17 19 19 15 16 21 24 24 23 22 23 23 22 24 27 30 30 26 23 24 27 28 27 28 28 30 32 24 17 18 19 21 23 23 24 24 23 23 23 21 21 21 21 21 20 20 21 21 22 22 23 23 24 24 24 24 24 24 25 25 25
15 23 23 18 17 17 16 16 17 18 18 20 20 21 23 26 27 26 24 25 24 20 18 22 22 19 19 17 14 14 15 19 23 20 19 21 22 22 24 27 29 28 26 22 22 25 27 25 26 26 28 29 23 17 18 20 22 23 24 26 26 25 25 25 23 22 22 22 21 21 20 21 21 21 22 22 23 23 24 24 23 23 24 24 24 24
18 22 20 18 17 17 17 17 17 19 20 21 21 21 23 24 25 27 28 27 26 24 23 26 27 25 22 18 16 17 16 19 24 22 20 21 21 22 24 26 28 28 28 26 22 22 22 22 23 23 25 28 22 15 16 19 21 23 25 27 27 27 28 28 25 24 24 23 22 22 21 21 21 21 21 21 22 22 22 22 22 22 23 23 24 24
20 22 22 19 17 17 18 17 17 19 21 22 22 22 23 22 22 24 25 24 24 25 25 26 26 26 25 20 18 20 21 23 26 23 20 19 19 20 21 23 25 24 25 26 22 22 22 21 21 21 24 29 24 15 15 19 22 25 27 28 29 29 30 30 28 25 25 25 24 24 23 22 21 21 21 21 21 21 21 21 21 21 22 22 22 22
19 22 23 20 17 17 17 15 16 19 20 20 22 21 21 20 20 22 23 22 23 25 25 23 23 24 24 21 18 20 23 24 23 21 21 21 21 21 22 24 23 21 22 25 25 26 26 23 22 21 22 24 23 18 18 21 24 27 28 29 30 31 31 32 30 27 27 27 26 26 24 22 21 21 21 20 20 19 19 19 20 20 20 21 21 21
18 20 22 21 19 18 16 15 18 19 18 19 20 19 19 20 20 21 22 22 23 25 24 21 20 21 22 20 18 19 22 24 22 20 23 24 24 26 26 24 22 22 25 27 27 28 26 24 24 24 23 24 23 22 23 25 27 29 30 31 32 32 32 34 33 29 28 28 28 27 25 22 21 21 20 20 19 19 19 19 18 19 19 19 19 19
18 17 19 19 18 19 19 18 19 18 16 17 18 18 19 20 21 22 22 23 24 24 22 20 18 20 22 21 20 20 22 24 23 21 21 24 26 26 23 20 22 24 26 27 28 27 25 25 28 28 30 30 27 24 26 30 31 31 31 32 33 33 33 35 35 32 30 29 29 27 25 22 20 20 19 18 19 19 19 19 18 18 18 18 18 18
17 16 16 13 13 17 19 18 16 17 18 19 18 19 21 21 22 21 21 22 23 21 21 20 19 19 21 21 20 22 24 24 24 23 22 24 26 24 20 21 25 26 27 29 30 28 26 27 30 31 33 33 30 28 29 31 33 33 33 33 35 35 34 36 36 34 31 30 29 27 25 22 20 19 18 18 18 18 19 19 18 18 18 18 18 17
14 14 13 11 11 13 15 14 11 10 15 19 17 18 22 22 21 19 19 19 19 17 17 18 19 19 20 17 14 19 25 25 25 24 24 26 25 23 24 27 27 27 27 27 27 27 28 29 30 31 32 33 33 33 32 32 33 34 35 36 37 37 36 36 37 36 33 31 29 26 24 22 20 19 18 17 17 18 18 18 19 19 18 18 17 17
13 13 13 12 11 10 12 14 14 11 12 14 12 14 19 20 20 19 17 16 16 15 14 16 17 17 20 20 17 20 23 22 22 22 23 25 25 25 27 28 28 28 27 27 28 29 30 31 31 32 33 34 35 36 36 35 35 35 36 37 39 40 38 37 38 37 33 31 28 25 24 22 21 20 18 17 18 18 17 18 19 18 18 18 18 17
16 16 14 11 11 12 10 11 13 14 12 11 11 12 14 16 17 19 18 18 19 19 18 18 17 15 18 20 20 22 22 21 23 22 22 24 26 26 27 28 29 28 28 28 29 29 29 30 31 33 34 35 37 38 38 37 37 37 37 39 41 42 40 38 39 37 33 29 27 25 24 22 21 20 19 18 19 19 18 19 19 19 18 19 19 18
16 16 14 12 14 16 15 13 12 12 12 13 13 13 14 16 17 18 18 20 22 23 22 21 20 19 19 20 22 23 23 25 25 26 27 29 29 29 30 30 29 29 28 27 26 26 27 28 30 31 32 34 36 37 37 38 38 38 38 39 41 42 41 39 37 35 31 28 26 25 24 22 20 20 19 19 20 21 21 20 20 20 20 19 19 19
19 19 16 17 16 14 16 19 17 15 15 16 14 11 14 19 20 18 19 20 21 22 22 21 21 22 21 22 25 25 25 25 25 26 29 29 28 29 30 29 28 27 27 27 27 28 28 29 30 30 31 32 33 34 34 34 35 36 36 36 37 39 39 39 35 31 29 27 25 25 24 22 21 20 20 20 20 21 22 22 22 22 21 21 20 20
24 24 21 22 19 12 13 18 17 16 17 18 17 15 15 17 18 17 18 20 21 21 21 19 19 20 20 20 24 25 23 22 23 24 25 25 26 27 26 25 24 25 26 27 28 29 30 30 31 30 31 31 31 31 31 31 31 32 33 33 33 34 36 37 35 29 27 27 25 25 24 23 22 22 21 20 20 21 22 22 22 22 22 21 21 20
26 28 25 24 21 13 12 17 16 15 17 17 18 20 20 21 20 18 18 19 20 21 21 19 17 19 20 19 22 25 24 23 23 22 23 26 25 23 21 21 22 23 25 27 28 29 30 30 30 30 30 30 30 30 29 29 30 30 31 31 32 32 33 34 35 30 27 27 27 26 25 25 24 22 21 21 20 20 21 22 22 22 22 22 22 21
26 28 27 26 23 19 19 21 19 18 18 16 16 18 18 20 21 21 22 22 22 22 21 21 19 21 22 20 22 25 24 22 22 19 24 28 21 17 19 21 22 24 25 27 28 29 30 30 31 30 30 29 30 30 29 29 30 31 31 31 32 33 33 34 35 33 31 30 30 28 27 26 25 23 23 23 22 21 22 22 22 22 22 22 22 22
26 28 27 24 24 25 25 23 20 21 23 20 20 19 15 14 15 17 20 20 21 23 21 21 22 23 24 22 23 25 24 23 21 21 29 29 18 15 19 22 24 26 27 28 29 30 30 31 31 31 31 30 29 30 29 29 30 31 32 32 33 34 36 36 36 36 36 35 33 30 29 28 27 27 26 25 24 24 24 24 24 24 23 22 22 22
30 29 27 24 23 25 26 24 20 23 26 23 21 21 18 18 19 20 21 20 22 24 22 21 22 24 25 23 24 26 26 27 26 27 32 29 19 19 25 26 27 27 28 29 30 31 32 32 32 32 32 32 31 30 30 30 30 32 33 34 35 36 37 38 38 39 39 39 35 33 32 31 31 31 29 26 26 27 27 27 27 27 26 24 23 22
31 29 28 27 26 27 28 27 25 28 32 29 26 26 26 27 27 27 27 28 28 28 27 27 27 28 28 26 27 28 28 29 29 27 29 28 25 27 30 30 30 30 30 31 31 32 33 33 34 34 34 34 33 32 31 31 31 32 33 35 36 37 37 37 38 38 38 38 36 35 35 34 35 35 32 30 30 30 30 30 30 31 28 25 23 23
31 30 30 30 30 30 29 29 27 25 27 28 30 33 34 33 32 31 32 33 33 32 32 32 31 30 30 30 30 30 29 29 29 29 32 34 33 33 32 31 31 31 31 32 33 34 35 36 36 36 37 37 36 35 34 34 34 33 34 35 35 36 36 36 36 36 36 36 36 35 35 34 36 36 34 34 34 34 33 32 32 32 29 26 24 24
32 33 33 33 34 33 32 31 26 20 20 24 29 33 34 33 32 32 34 35 35 34 33 32 32 31 31 32 33 33 32 31 30 32 35 37 36 34 34 34 33 33 34 35 36 37 38 39 40 39 40 39 39 39 37 37 37 36 36 36 36 37 37 37 36 36 35 35 35 35 35 34 34 34 33 34 35 35 33 31 31 31 30 28 27 26
37 37 36 36 37 36 35 34 31 28 29 31 32 33 32 30 29 31 34 34 33 34 34 32 32 31 30 31 32 32 33 33 33 34 36 37 38 37 37 37 37 37 38 39 39 40 40 41 41 42 42 42 43 42 41 40 40 40 39 39 39 39 39 39 39 38 38 37 37 38 38 37 37 36 35 34 35 35 33 31 30 29 29 29 29 30
40 41 40 39 40 39 39 38 37 37 38 38 37 37 35 32 30 32 34 32 31 33 34 34 34 33 32 33 34 34 33 34 35 35 34 35 38 40 41 40 38 36 37 39 39 40 41 41 40 41 43 44 45 46 45 44 43 43 43 42 42 41 41 41 41 41 41 41 41 41 42 42 41 41 40 39 39 39 37 35 35 33 32 30 29 29
41 42 42 41 41 41 41 41 41 42 42 42 42 42 42 41 39 39 40 38 37 37 36 36 36 36 37 39 40 39 39 39 39 36 33 33 34 37 39 38 36 34 36 38 38 38 39 40 40 41 42 44 45 47 48 47 46 46 46 46 46 45 44 44 44 45 45 45 45 45 46 46 45 45 45 44 43 43 42 41 41 42 42 39 36 35
39 40 40 41 42 42 43 44 44 44 44 44 44 43 45 46 45 44 45 45 45 45 43 44 43 41 42 43 44 43 44 44 43 41 39 38 38 39 39 36 34 33 35 38 40 39 40 39 39 40 42 42 43 45 48 49 49 48 48 48 49 48 48 48 48 48 49 49 49 49 49 50 49 49 49 49 48 47 46 45 45 46 46 45 43 42
35 35 35 36 38 39 40 41 42 44 45 45 45 44 44 45 44 45 46 46 48 49 49 50 50 48 47 47 45 44 44 44 44 45 45 45 44 43 40 38 36 34 36 40 42 42 42 41 40 40 40 39 40 42 45 47 49 49 49 49 49 50 51 51 51 51 52 52 53 53 53 53 53 52 52 52 52 51 51 50 49 48 48 48 47 46
32 32 32 33 34 36 36 36 38 40 42 44 45 44 44 45 45 45 46 47 48 50 50 50 50 49 48 47 45 42 42 43 45 47 47 47 46 43 40 39 40 40 40 42 43 43 44 45 45 44 42 41 41 42 42 43 45 46 47 47 48 50 50 50 51 51 52 53 53 54 54 54 54 55 55 54 54 54 53 53 52 51 51 50 49 49
32 33 34 35 36 36 35 35 37 39 40 41 41 42 42 44 47 47 48 49 49 50 51 50 49 47 47 47 46 43 43 45 47 48 47 46 45 44 43 43 43 43 42 42 43 43 45 48 51 50 45 43 45 47 45 44 45 46 47 47 48 48 49 49 49 50 50 51 51 52 53 53 54 54 55 55 55 55 54 54 54 54 53 52 52 51
38 39 41 41 41 40 38 37 39 41 43 41 39 40 41 42 45 47 47 47 47 48 49 48 46 47 47 47 46 44 44 45 47 49 49 47 46 45 46 46 45 44 43 43 45 46 47 51 53 52 47 44 46 48 48 48 47 46 46 47 46 47 47 47 48 49 49 49 49 50 50 51 51 52 53 54 54 54 54 53 53 53 54 54 54 54
42 42 43 43 44 43 41 40 43 46 45 42 40 42 43 42 43 44 43 43 44 44 45 44 43 43 43 43 43 44 45 47 48 48 48 49 48 46 47 47 46 46 46 46 47 49 52 54 54 52 49 44 44 46 49 50 48 45 45 46 47 48 48 49 49 49 49 49 49 49 49 50 50 51 52 53 53 53 53 52 52 53 54 54 55 55
41 41 41 42 42 42 42 42 44 44 42 40 40 43 44 43 42 41 40 40 41 41 42 43 43 44 43 42 43 46 47 47 48 46 45 46 46 45 46 47 46 48 50 51 52 53 56 56 55 54 52 49 48 51 53 52 49 47 47 48 49 49 50 50 49 49 50 49 49 49 50 50 50 50 51 52 52 53 53 52 52 53 54 55 55 55
39 37 37 38 38 38 39 40 40 41 41 42 43 44 45 44 43 42 41 40 40 41 43 44 46 47 46 45 47 51 51 50 50 48 46 46 45 45 46 47 48 50 52 53 55 57 57 58 57 56 56 54 53 54 54 53 51 49 48 48 48 48 48 48 48 49 49 50 50 50 50 50 50 51 51 51 52 53 54 55 56 56 55 55 54 54
37 37 36 36 37 37 37 38 40 41 43 44 45 46 46 45 45 44 42 40 40 41 41 42 45 47 46 45 49 52 51 49 49 47 45 46 47 47 46 46 48 50 52 53 56 57 58 59 58 58 57 55 53 53 54 53 51 49 48 47 47 47 48 48 48 48 49 49 50 50 51 51 51 51 51 52 52 52 54 55 56 57 57 56 56 56
34 35 36 37 38 38 39 40 41 41 42 43 43 45 46 45 44 43 42 41 41 40 39 41 44 46 46 45 47 49 48 47 47 44 41 43 47 47 47 46 47 48 51 53 54 54 55 56 55 54 54 53 52 53 54 52 51 50 49 48 48 48 47 47 47 48 48 48 49 49 50 51 51 52 52 52 53 53 53 54 54 55 55 55 56 56
35 36 38 39 40 40 40 40 38 37 38 40 41 42 42 40 39 40 41 41 41 40 40 41 43 45 45 45 45 45 46 47 47 45 43 44 45 46 46 47 48 48 49 51 52 52 52 52 52 51 50 50 51 52 52 51 50 50 49 49 48 47 47 47 47 46 46 47 47 47 48 49 50 51 52 52 53 53 53 54 54 54 54 54 54 54
38 38 38 38 39 39 37 35 33 32 35 38 41 42 42 40 39 39 40 40 40 41 42 43 43 44 44 44 45 45 46 48 48 47 46 45 45 46 47 48 49 50 50 51 52 52 52 51 51 51 50 50 51 51 51 51 50 50 50 49 48 47 46 46 46 45 45 45 46 46 46 47 47 48 48 49 50 52 53 54 54 54 54 54 53 51
38 38 37 36 35 34 31 30 31 31 33 36 39 42 43 41 40 40 40 39 40 41 43 44 45 45 45 45 46 46 47 48 48 48 47 47 46 47 47 47 48 50 51 51 52 52 52 52 52 52 51 51 51 51 51 51 51 51 50 49 48 47 46 45 45 45 46 46 46 47 47 46 46 46 46 46 47 48 49 51 52 52 53 53 52 50
38 38 37 33 30 30 31 32 33 34 36 38 39 40 42 42 43 44 43 43 43 43 43 44 45 46 48 48 48 48 48 49 48 48 48 47 47 47 47 48 49 49 51 52 52 52 53 52 52 53 53 51 50 51 51 51 52 51 50 49 49 48 47 46 46 46 46 47 47 47 47 47 47 47 46 46 46 46 47 48 49 49 50 51 51 50
37 37 36 33 32 32 33 33 35 36 38 40 41 42 44 46 47 48 48 47 47 47 46 47 48 49 50 51 51 51 51 51 50 48 47 47 48 48 49 49 50 51 51 53 53 53 53 53 53 54 53 52 52 52 52 52 52 51 50 50 50 49 48 47 47 47 47 47 47 47 47 47 47 47 47 47 46 46 47 47 47 47 47 47 48 49
36 36 36 35 36 37 36 36 37 38 38 40 43 45 48 49 49 49 48 47 47 47 48 49 49 50 51 51 51 51 51 50 49 48 47 47 47 47 48 49 50 51 52 53 54 53 53 53 54 54 54 53 53 53 53 53 52 51 50 50 50 50 50 49 48 48 48 48 48 47 47 46 46 47 47 47 46 47 48 48 47 47 46 46 46 48
35 35 35 35 36 37 38 39 40 40 42 44 47 48 49 49 50 50 49 49 48 49 49 49 49 49 50 50 49 50 51 50 50 49 48 47 46 47 47 48 49 50 52 53 53 52 53 54 55 54 54 53 53 53 53 53 52 51 50 50 51 51 50 50 49 48 48 48 48 47 46 46 46 46 46 46 46 47 48 48 46 46 45 45 45 46
35 34 34 35 36 38 38 39 41 43 45 46 47 48 49 50 50 51 51 51 51 50 50 50 50 50 50 50 50 50 50 50 50 50 49 48 47 47 47 47 48 50 51 51 51 52 53 54 54 54 53 52 52 53 53 53 53 52 51 51 52 51 50 50 50 49 48 48 47 45 44 44 43 43 44 45 45 45 46 46 44 43 44 44 44 44
33 32 33 34 36 36 37 39 41 43 44 44 45 47 48 49 49 50 50 50 51 51 51 50 49 49 49 50 50 50 50 50 50 50 49 48 48 48 48 49 49 50 50 51 51 51 53 53 54 55 53 51 51 54 53 52 52 52 51 51 51 51 50 50 49 48 47 46 45 44 43 42 43 42 43 44 43 43 44 44 43 42 43 43 43 42
32 33 33 34 35 36 36 38 40 41 41 42 44 45 47 48 48 48 48 49 50 50 50 49 49 49 49 49 49 50 49 49 50 50 50 49 48 48 48 49 49 50 50 51 51 51 53 53 53 53 53 51 52 55 54 53 53 53 52 52 52 51 50 49 48 47 46 45 45 45 43 43 43 43 42 42 43 42 43 43 42 42 42 42 42 43
32 33 34 35 36 36 36 37 38 39 40 40 41 42 44 45 45 46 47 48 48 48 49 48 48 49 49 48 48 49 49 49 49 50 50 50 49 49 49 49 50 50 50 51 51 51 52 52 52 52 53 52 53 54 54 53 53 53 52 52 52 50 49 48 47 47 47 46 46 45 44 43 43 42 41 41 41 41 41 41 41 41 40 40 41 42
33 33 34 35 36 36 36 37 38 40 41 41 41 42 43 43 44 45 46 47 48 48 48 48 48 47 47 47 47 47 48 48 49 50 50 50 49 50 50 50 51 51 51 51 52 52 52 53 52 51 51 52 52 53 53 53 53 52 50 50 50 49 48 47 47 47 47 47 45 45 44 43 42 41 40 40 39 39 40 40 40 40 41 41 41 41
Wind_Direction
252 250 249 247 241 234 226 229 235 239 237 215 201 201 225 234 217 215 251 267 258 243 240 229 205 220 229 229 240 252 262 262 248 243 256 265 267 264 263 263 262 258 258 262 263 261 260 257 262 269 269 268 271 272 273 277 278 278 278 275 274 275 276 278 279 281 284 286 286 285 285 286 285 285 285 285 285 283 282 282 281 281 280 279 278 278
254 253 253 249 245 245 241 235 236 230 219 215 218 220 214 205 201 225 245 260 264 256 250 236 199 230 253 224 224 244 245 251 258 257 261 265 266 266 261 258 261 262 263 263 258 255 261 265 267 268 268 267 268 270 272 275 276 275 274 273 274 276 277 280 283 286 288 290 290 288 287 286 286 284 284 284 283 282 282 281 281 281 281 280 280 279
255 252 246 250 250 246 243 239 236 232 226 226 232 233 220 197 196 232 245 250 262 265 252 230 192 201 250 230 221 238 244 255 270 268 266 266 265 266 263 259 260 263 263 263 260 259 263 267 268 266 266 266 264 265 270 272 273 275 274 274 275 277 278 281 286 289 291 293 292 291 290 288 286 283 282 281 281 280 280 280 280 280 280 280 280 279
252 251 240 248 258 251 244 245 243 240 237 233 235 237 224 208 208 233 253 249 249 260 258 250 232 221 244 237 224 240 254 263 270 267 266 266 264 264 264 262 261 261 260 259 261 263 263 263 264 262 261 262 261 261 266 270 274 275 276 277 278 280 282 283 287 290 291 292 293 293 293 290 287 283 280 279 278 278 277 277 278 278 278 278 278 278
242 248 248 249 256 255 246 245 245 243 242 238 238 240 228 220 221 229 251 248 240 254 261 254 257 255 259 261 245 250 262 264 263 262 261 262 262 262 265 264 261 261 260 261 264 266 266 264 262 260 258 257 254 256 266 270 273 276 277 280 281 282 284 284 287 290 291 292 293 293 294 292 288 284 280 278 276 276 275 275 275 276 276 276 277 277
244 246 253 254 250 250 250 249 247 244 243 243 242 243 234 229 232 229 240 250 245 250 263 257 257 259 261 266 268 265 266 264 261 258 256 256 256 257 262 264 263 264 266 268 268 267 267 263 260 259 254 250 246 248 262 269 271 276 280 282 283 284 285 287 288 290 291 293 294 294 294 293 290 285 281 278 276 275 273 273 274 275 276 276 276 276
245 250 257 260 255 251 252 253 252 248 245 243 242 244 241 235 239 241 242 251 254 253 260 260 256 255 256 258 262 260 255 256 258 257 253 251 252 254 256 260 265 268 266 264 264 264 264 259 258 259 251 243 240 243 255 267 273 277 281 282 283 286 287 288 289 291 292 293 295 296 296 295 292 287 283 279 277 275 273 273 273 274 276 277 277 277
246 256 262 260 257 252 249 249 249 248 246 244 241 242 245 242 240 245 247 250 255 255 254 258 260 260 259 256 255 250 237 244 258 261 256 251 250 250 252 257 262 265 265 264 262 260 260 258 257 260 251 238 236 246 256 267 276 278 281 282 284 286 288 289 290 292 294 295 296 298 298 296 293 287 282 279 277 275 273 272 272 273 274 276 277 277
246 254 262 260 257 253 247 245 247 249 248 247 244 242 247 251 246 246 249 250 253 256 254 257 262 263 262 257 252 250 244 246 258 262 259 256 250 249 253 255 256 258 264 267 266 260 260 262 258 257 252 240 236 251 264 268 276 277 279 281 283 285 286 288 291 293 295 296 298 300 299 295 291 285 280 276 274 273 272 271 271 271 272 273 275 275
249 251 259 261 256 252 247 246 250 249 250 249 248 250 252 254 252 251 252 252 252 256 257 258 260 261 262 257 245 247 251 252 256 260 260 260 255 251 251 253 257 262 266 266 266 264 263 265 262 254 247 239 241 260 272 273 276 276 277 278 280 282 284 287 290 292 294 295 297 298 295 290 285 281 277 273 272 271 270 270 270 270 271 272 273 274
256 256 258 257 251 250 246 245 252 253 252 254 253 253 253 251 252 253 252 252 252 255 259 261 260 258 259 257 247 243 250 254 255 254 254 255 254 252 251 254 260 263 266 268 266 263 263 265 262 251 245 250 262 274 276 275 276 274 275 276 276 279 282 285 288 290 292 293 295 294 289 283 277 274 272 270 269 268 268 268 269 270 271 272 273 274
253 258 259 254 248 250 248 248 257 260 255 255 255 252 251 251 252 254 253 252 252 255 260 260 257 255 252 250 247 242 244 253 257 250 245 243 243 248 257 261 259 257 263 267 264 261 263 263 260 256 256 263 272 275 271 272 274 273 273 275 276 278 281 284 286 288 290 290 290 288 282 275 269 267 267 266 267 267 267 267 267 268 269 271 273 274
249 253 262 263 254 250 249 249 256 261 254 250 251 251 250 251 251 253 254 254 253 254 256 252 244 244 247 248 250 249 245 249 254 252 249 248 248 254 264 266 263 260 259 262 265 266 264 261 263 267 269 271 273 271 266 267 270 272 274 275 276 277 279 282 284 285 287 287 285 281 275 269 264 263 265 266 267 267 268 269 268 268 269 269 271 273
248 249 252 256 254 248 244 237 234 250 252 244 242 246 247 247 250 252 251 254 257 255 254 251 243 240 247 248 245 247 247 248 252 255 256 259 260 260 262 265 266 265 262 265 271 270 265 263 265 267 269 271 270 268 265 264 266 269 272 273 275 275 276 278 280 281 283 282 279 273 267 262 261 263 265 266 267 268 270 271 270 271 271 271 271 273
249 249 249 246 241 242 239 229 223 232 251 247 241 248 251 249 247 247 247 247 251 250 246 249 250 247 248 246 238 245 253 254 256 259 260 261 261 259 261 265 266 267 269 270 268 266 264 264 262 260 261 263 264 265 265 265 264 265 267 270 272 272 273 273 274 276 277 275 273 267 260 257 258 262 265 267 268 268 270 272 272 273 273 274 274 274
248 247 251 243 229 233 235 230 232 236 246 254 245 244 256 259 249 245 246 245 246 246 244 248 251 248 248 250 251 258 263 261 261 262 262 263 264 264 264 266 268 269 268 265 263 264 263 261 258 257 257 258 259 261 263 264 264 263 263 265 267 269 269 269 269 270 270 268 266 261 256 255 257 260 263 267 270 270 269 270 271 272 273 275 276 276
246 242 243 239 237 247 248 239 244 242 238 250 254 244 246 252 249 245 246 248 249 249 249 254 256 256 260 264 264 265 265 263 265 266 265 264 265 266 266 266 269 270 266 264 264 264 262 260 258 257 257 257 258 259 261 261 261 261 260 261 264 267 267 265 264 264 263 262 261 257 253 253 255 259 262 265 269 271 270 268 269 271 273 274 275 275
251 245 238 241 244 255 256 246 249 254 248 250 255 252 248 248 247 246 248 250 252 253 253 256 258 260 264 267 267 267 267 267 268 266 265 266 266 266 266 265 267 269 269 269 268 266 266 265 262 260 260 260 259 259 260 259 259 259 259 259 262 266 267 262 257 256 259 259 257 253 251 251 253 258 262 265 269 270 270 268 267 269 271 273 274 273
253 249 242 244 251 262 266 256 251 253 254 252 247 245 253 256 250 245 250 255 255 257 257 255 256 259 258 260 265 265 264 266 267 266 268 270 269 268 267 265 265 266 266 266 266 266 266 265 265 264 263 262 261 259 259 258 257 257 256 257 259 264 267 260 251 252 256 255 255 252 249 250 252 257 262 266 269 270 269 268 266 266 269 271 273 273
249 251 247 247 252 254 251 254 257 256 254 254 250 247 250 254 254 250 251 256 256 258 258 256 256 259 256 252 254 259 262 260 255 258 269 273 272 270 267 265 264 264 264 265 265 265 265 265 265 264 263 262 261 260 259 257 255 254 253 254 256 260 263 256 251 256 260 257 256 253 250 250 252 256 261 266 269 270 270 270 268 267 267 268 269 270
252 253 252 250 251 250 249 257 269 268 257 246 243 250 253 255 260 259 253 253 257 259 259 259 261 261 258 253 251 259 264 254 242 247 268 272 266 260 263 268 270 269 269 268 266 265 265 265 264 263 262 261 260 259 257 254 252 251 250 251 253 255 258 255 254 261 266 264 260 256 253 253 254 257 261 264 266 265 266 268 269 267 266 264 265 266
255 255 254 253 253 256 259 262 266 262 254 243 241 248 248 245 255 258 252 251 255 257 255 257 259 258 258 261 261 263 264 258 254 260 269 267 254 253 269 274 273 272 270 269 267 266 265 265 265 265 263 261 259 257 255 252 249 248 247 247 249 251 254 256 257 260 265 267 264 260 258 256 255 257 259 262 264 263 264 266 267 267 265 261 259 261
254 256 257 256 253 255 257 259 260 259 256 251 251 253 246 242 249 254 254 252 253 254 252 252 255 257 259 262 262 263 265 268 270 266 262 256 249 264 277 275 271 270 268 267 267 265 265 264 265 265 265 263 260 257 256 253 250 247 246 245 245 249 251 255 258 261 265 266 262 259 261 262 263 263 261 263 265 263 263 266 268 267 264 261 257 256
256 258 259 258 256 255 256 258 261 266 269 267 263 261 259 257 258 259 261 261 258 256 255 257 262 265 265 264 264 266 267 270 271 263 256 254 257 270 275 270 267 267 265 265 264 263 262 262 263 263 264 264 262 259 256 255 252 250 250 249 249 251 252 253 257 262 266 266 260 259 263 268 271 268 263 263 265 263 262 267 271 267 261 261 259 257
263 263 262 261 259 257 258 260 261 265 272 273 267 262 260 259 260 260 261 261 261 261 262 265 267 268 267 266 267 269 268 268 269 266 265 266 267 271 271 266 264 263 262 262 260 260 260 261 262 262 261 261 261 259 256 254 253 252 253 254 255 256 257 257 258 261 263 262 258 258 262 265 268 266 262 261 263 265 265 268 272 266 259 262 265 262
266 266 263 263 262 260 258 258 256 248 245 251 259 261 259 255 254 254 255 256 260 262 263 265 266 266 266 267 268 269 269 268 267 267 270 271 269 268 268 267 265 263 264 263 260 260 260 261 262 261 260 259 258 257 255 253 252 252 252 254 256 258 260 260 260 260 259 257 255 256 259 261 264 263 261 260 262 266 268 271 270 261 255 263 268 264
265 264 263 263 263 261 259 256 253 249 244 246 252 257 259 258 253 251 254 256 258 258 258 259 260 259 261 265 266 267 268 267 266 266 267 269 269 268 267 268 268 267 267 266 262 260 260 261 263 261 260 259 257 256 255 252 251 250 250 252 253 255 258 261 263 262 261 259 258 259 260 261 262 262 261 261 262 264 268 272 269 259 256 264 267 263
266 265 264 263 261 260 260 258 255 254 253 253 254 255 258 258 255 254 256 256 255 254 254 253 253 253 255 258 260 261 263 265 265 266 266 265 267 267 266 266 267 266 266 266 264 262 261 262 263 262 260 258 257 256 255 254 252 251 251 251 252 253 255 258 261 263 264 264 262 262 262 262 263 264 263 263 263 265 267 268 267 264 265 269 268 264
264 265 264 263 261 260 258 257 256 254 253 254 255 256 256 256 257 258 258 256 256 256 254 252 252 253 255 257 258 259 261 261 261 261 261 260 261 265 267 267 264 261 261 263 264 264 262 261 262 264 263 261 259 257 255 255 254 253 253 252 253 253 254 256 258 261 264 265 266 265 265 265 264 265 265 264 264 265 267 267 266 267 269 269 268 267
263 264 264 262 262 261 259 257 256 255 255 254 254 256 257 258 259 259 259 258 257 257 256 257 257 255 255 258 258 257 256 258 259 259 259 260 262 265 268 265 261 262 264 264 263 263 263 262 261 262 264 263 261 258 256 255 255 255 255 255 255 255 255 256 257 259 260 263 265 266 267 267 267 267 267 268 268 268 268 268 268 268 270 270 269 267
261 262 262 261 260 260 260 259 258 258 258 256 254 254 255 256 257 258 259 259 259 258 258 260 260 259 259 260 259 256 255 256 258 259 260 261 262 264 266 263 261 263 266 264 263 263 263 262 259 258 260 261 261 259 257 255 255 255 255 256 257 257 257 257 258 259 259 260 262 264 265 266 267 268 268 269 270 270 271 271 270 270 270 270 270 268
259 260 262 262 261 261 262 262 261 260 258 257 256 255 254 256 257 258 260 261 262 262 262 262 262 263 263 262 259 256 253 253 253 254 256 258 259 259 259 259 259 261 262 262 263 264 263 262 259 256 257 257 258 258 258 257 257 257 257 257 258 258 258 258 259 259 260 260 261 262 263 264 265 266 267 268 269 270 270 271 272 271 270 270 270 269
259 260 261 262 262 263 264 264 263 262 259 258 259 259 257 257 257 258 259 260 262 263 264 264 264 265 264 263 260 256 253 253 253 253 254 256 257 257 256 256 258 261 262 263 264 263 262 262 261 260 258 256 257 258 257 257 260 261 260 260 261 260 259 259 259 259 260 260 260 261 261 262 263 263 264 265 266 267 268 269 270 270 271 270 270 269
259 261 263 264 264 265 265 265 265 264 262 261 262 263 261 260 259 258 259 260 262 263 265 265 265 265 263 263 262 259 256 255 254 253 254 255 255 255 257 258 259 261 261 261 261 260 260 261 263 264 263 259 258 259 258 259 261 262 262 262 263 262 261 261 261 261 260 261 261 261 260 260 260 261 262 262 263 264 264 266 267 268 269 270 270 269
262 263 264 265 265 265 264 264 264 264 265 266 266 264 262 261 261 261 262 263 264 264 264 264 263 263 263 263 263 261 259 257 256 256 257 257 256 255 255 256 257 258 258 257 257 257 258 260 262 263 263 260 258 259 261 264 264 262 261 262 262 262 263 264 263 263 262 262 262 261 261 261 260 260 260 260 261 261 262 263 265 267 268 268 269 269
263 264 264 264 263 263 262 262 264 266 268 268 267 266 265 265 265 266 267 268 266 265 264 263 261 261 262 262 262 262 261 261 261 260 258 258 258 257 255 255 256 256 256 256 256 257 258 260 261 262 263 262 261 262 264 265 265 263 262 263 263 264 264 264 264 263 263 263 263 262 262 262 262 261 261 260 260 259 259 260 262 264 264 265 266 267
261 261 262 262 261 261 261 262 264 268 269 269 268 270 271 271 271 271 269 266 264 263 263 263 263 263 263 261 261 263 263 264 264 262 259 259 261 260 257 255 254 254 255 254 255 256 257 259 261 262 263 263 262 263 264 264 265 265 265 264 264 265 265 264 263 263 263 263 263 263 263 263 263 263 262 262 261 260 259 260 261 262 262 263 263 263
260 259 258 259 261 263 263 263 264 266 268 270 272 273 274 274 274 274 272 267 263 262 263 264 264 263 263 262 263 265 266 266 265 264 263 262 261 258 256 254 253 253 253 253 254 256 257 259 261 263 264 264 263 262 263 264 265 266 266 265 265 265 265 265 264 264 263 263 263 262 263 263 263 263 263 263 263 263 262 262 263 265 265 265 265 265
261 260 260 260 262 266 268 268 269 270 271 271 272 273 273 273 273 273 271 268 265 264 263 263 263 264 264 263 263 265 266 265 264 263 262 261 260 258 256 254 253 252 253 255 256 258 259 260 262 263 264 264 263 263 263 264 265 265 265 266 266 266 266 265 265 264 264 264 263 263 262 262 261 261 262 262 262 263 263 264 264 266 267 267 268 268
258 259 262 265 266 267 269 270 270 270 270 268 268 268 269 270 270 269 269 268 267 266 264 262 261 263 263 262 262 263 264 264 265 264 262 260 260 259 256 253 252 252 253 254 256 257 259 261 263 263 262 262 262 262 263 263 264 264 265 265 265 265 265 265 265 265 265 265 265 264 264 263 262 262 261 261 262 262 262 263 264 265 266 266 267 268
260 260 262 265 266 266 267 267 264 261 263 265 266 266 266 266 266 266 265 264 264 264 264 262 261 261 262 263 263 263 263 264 265 265 263 261 260 259 258 256 255 253 254 254 256 258 260 261 262 261 261 260 260 261 262 262 263 264 265 265 265 265 265 265 264 265 265 265 265 265 265 265 264 264 263 263 263 262 262 263 263 264 265 265 265 267
260 262 263 264 263 263 262 261 258 256 257 260 262 264 265 265 264 263 260 259 260 261 262 262 262 262 262 263 263 264 264 265 265 265 264 263 261 260 260 259 258 257 256 256 257 259 260 260 261 261 261 260 260 261 261 262 263 264 264 265 265 265 265 264 264 264 263 263 264 264 264 265 265 265 265 265 265 265 264 264 264 264 265 265 266 266
258 262 265 265 261 257 255 253 252 252 252 254 256 259 262 262 261 262 261 261 261 262 261 262 262 263 264 264 263 263 264 264 264 265 264 263 261 260 260 259 259 259 258 257 257 258 259 259 260 261 262 262 261 261 261 262 263 264 264 264 265 265 265 264 264 263 263 263 263 264 264 264 265 266 266 266 267 267 266 266 266 266 266 267 266 265
259 260 261 259 256 254 254 253 251 250 252 254 254 255 257 259 260 261 262 263 264 264 263 262 263 263 264 265 265 265 265 265 265 266 265 264 263 261 261 261 261 261 261 260 260 259 259 259 260 260 261 261 261 261 262 263 263 264 264 265 265 265 265 264 264 263 263 263 263 264 264 264 265 266 266 267 268 268 268 268 268 268 269 269 267 266
258 258 258 257 256 256 255 254 253 252 253 254 254 255 257 259 261 262 263 264 265 266 265 264 264 265 266 266 267 268 268 268 267 266 265 264 263 262 261 261 262 263 263 262 262 261 261 260 260 260 261 261 261 262 263 263 263 264 265 265 265 265 265 264 264 264 263 264 264 264 264 264 264 265 266 266 267 267 267 267 268 269 269 269 268 267
257 259 260 260 259 258 257 257 256 254 251 252 254 257 259 260 262 263 264 264 264 264 265 266 267 267 267 267 267 267 268 268 267 266 266 265 265 264 262 261 261 261 262 263 263 264 263 262 262 262 262 262 263 264 264 265 265 265 265 266 266 265 266 266 265 265 265 265 265 265 265 265 265 265 265 265 265 265 266 267 268 268 268 267 267 267
262 263 263 261 260 259 259 258 257 255 255 256 259 261 262 263 263 264 265 266 266 266 266 267 267 266 267 267 267 267 267 268 268 268 267 266 266 265 264 262 261 260 261 262 263 264 263 263 264 263 263 263 265 265 265 265 266 266 266 266 266 266 267 267 266 266 266 267 267 267 267 266 265 264 264 263 263 263 264 266 266 267 267 266 266 266
266 266 264 262 262 262 261 259 258 260 261 263 263 263 263 264 265 266 267 268 269 269 269 269 269 268 268 268 268 268 268 268 268 269 268 267 266 265 264 263 262 262 262 261 261 261 262 263 263 264 265 265 266 266 266 266 266 267 267 266 266 267 267 267 268 268 268 269 269 268 267 266 265 263 262 262 263 262 263 264 265 265 265 266 266 266
268 268 266 266 266 266 265 264 264 265 265 263 263 263 265 266 267 268 268 268 269 270 270 271 270 270 269 269 269 269 269 269 269 269 269 268 267 266 264 263 263 262 262 262 261 260 261 261 262 264 265 264 263 264 265 265 266 267 267 267 267 268 268 269 269 269 269 269 268 267 266 265 264 263 262 262 263 263 263 263 263 264 264 264 265 265
269 269 270 271 271 270 269 269 269 270 268 266 266 266 267 268 269 269 268 268 269 270 270 271 270 270 271 271 271 271 271 271 270 269 269 269 268 268 266 265 264 263 262 262 262 261 261 261 261 261 262 262 262 263 264 264 264 265 266 267 268 268 269 269 269 268 268 267 267 267 266 266 265 264 263 262 262 263 263 263 263 263 263 262 262 262
273 274 275 276 276 276 274 273 272 272 272 271 270 269 269 269 269 269 269 269 270 270 271 271 272 272 273 273 273 273 272 271 270 270 270 269 269 268 267 266 265 264 263 263 262 262 261 262 262 262 262 262 262 263 263 262 263 264 265 266 267 267 267 267 267 266 266 266 266 266 266 266 266 266 264 263 262 262 262 263 262 262 262 262 262 262